Location: São Paulo
(23.5507°S, 46.6334°W)
Time: 14:10:17
(UTC-03:00)

Transit 2A - All Passes

Search period start: 16 February 2026 00:00
Search period end: 26 February 2026 00:00
Orbit: 589 x 955 km, 66.7° (Epoch: 16 February)

Date Brightness Start Highest point End Pass type
(mag) Time Alt. Az. Time Alt. Az. Time Alt. Az.
16 Feb - 00:25:57 10° NNW 00:30:41 80° WSW 00:35:06 10° SSE night (unlit)
16 Feb - 09:23:39 10° SE 09:24:10 10° ESE 09:24:41 10° ESE daylight
16 Feb - 11:02:18 10° SSW 11:07:16 65° WNW 11:12:45 10° NNE daylight
16 Feb - 23:49:46 10° N 23:54:23 54° ENE 23:58:43 10° SE night (unlit)
17 Feb - 10:25:58 10° SSW 10:30:58 74° ESE 10:36:29 10° NNE daylight
17 Feb - 23:14:02 10° N 23:18:07 29° ENE 23:21:58 10° SE night (unlit)
18 Feb - 00:58:06 10° W 01:00:58 16° WSW 01:03:46 10° SSW night (unlit)
18 Feb - 09:49:54 10° S 09:54:38 42° ESE 09:59:49 10° NE daylight
18 Feb - 11:34:23 10° WSW 11:37:22 15° WNW 11:40:30 10° NW daylight
18 Feb - 22:38:58 10° NNE 22:41:52 16° ENE 22:44:38 10° ESE night (unlit)
19 Feb - 00:20:34 10° NW 00:24:34 28° WSW 00:28:23 10° S night (unlit)
19 Feb - 09:14:08 10° S 09:18:16 25° ESE 09:22:42 10° ENE daylight
19 Feb - 10:56:52 10° SW 11:01:07 26° WNW 11:05:41 10° NNW daylight
19 Feb - 23:43:40 10° NW 23:48:12 52° WSW 23:52:30 10° S night (unlit)
20 Feb - 08:38:55 10° SSE 08:41:50 15° ESE 08:44:54 10° E daylight
20 Feb - 10:19:59 10° SW 10:24:49 45° WNW 10:30:07 10° N daylight
20 Feb - 23:07:12 10° NNW 23:11:54 84° ENE 23:16:18 10° SSE night (unlit)
21 Feb - 09:43:27 10° SSW 09:48:31 78° WNW 09:54:06 10° NNE daylight
21 Feb - 22:31:09 10° N 22:35:36 44° ENE 22:39:48 10° SE night (unlit)
22 Feb - 00:17:31 10° WSW 00:18:36 11° WSW 00:19:41 10° SW night (unlit)
22 Feb - 09:07:12 10° SSW 09:12:12 62° ESE 09:17:42 10° NNE daylight
22 Feb - 10:54:07 10° W 10:54:53 10° WNW 10:55:39 10° WNW daylight
22 Feb - 21:55:36 10° NNE 21:59:20 24° ENE 22:02:55 10° SE night (unlit)
22 Feb - 23:38:52 10° WNW 23:42:08 19° WSW 23:45:19 10° SSW night (unlit)
23 Feb - 08:31:13 10° S 08:35:51 36° ESE 08:40:55 10° NE daylight
23 Feb - 10:15:03 10° WSW 10:18:38 19° WNW 10:22:25 10° NNW daylight
23 Feb - 21:20:56 10° NE 21:23:05 13° ENE 21:25:12 10° E night (unlit)
23 Feb - 23:01:34 10° NW 23:05:44 34° WSW 23:09:44 10° S night (unlit)
24 Feb - 07:55:33 10° SSE 07:59:28 22° ESE 08:03:38 10° ENE daylight
24 Feb - 09:37:48 10° SW 09:42:21 31° WNW 09:47:17 10° N daylight
24 Feb - 22:24:49 10° NNW 22:29:24 63° WSW 22:33:44 10° SSE night (unlit)
25 Feb - 07:20:37 10° SSE 07:23:01 13° ESE 07:25:29 10° E daylight
25 Feb - 09:01:04 10° SW 09:06:03 54° WNW 09:11:33 10° N daylight
25 Feb - 21:48:29 10° NNW 21:53:05 68° ENE 21:57:27 10° SSE night (unlit)
